ABS-2A (MONGOLSAT-1) (41588 NORAD) Tracking and Keplerian Element Data

This shows tracking and keplerian element data for the satellite.

Feedback or suggestion? Click here.




ElementValue
Catalog41588
NameABS-2A (MONGOLSAT-1)
Epoch Orbit3169
Epoch Day34.76984618
Epoch Year2025
RAAN101.6774
Inclination0.0097
Eccentricity0.0001803
Argument of Perigee169.1253
Mean Anonmoly215.2078
Mean Motion1.00269816
Decay Rate-7.9E-07
L11 41588U 16038A 25034.76984618 -.00000079 00000+0 00000+0 0 9992
L22 41588 0.0097 101.6774 0001803 169.1253 215.2078 1.00269816 31696



Live tracking and technical data element details for ABS-2A (MONGOLSAT-1) (NORAD 41588). ABS-2A (MONGOLSAT-1) can be tracked NOW for your location showing map with azimuth and elevation plus other details from your city location.







IsCatalogInMostPopularTable: catalog: 41588, numindb: 726
Update: records affected: 1



GetName: 41588 ABS-2A (MONGOLSAT-1)

Hit Count: updated at: Wed, 18 Jun 2025 05:53:23 GMT